IRIDIUM 33 DEB, 38241

Orbit data source: Space-Track

IRIDIUM 33 DEB, 38241 is space debris in LEO originally from a launch on Sun, 14 Sep 1997 UTC launched from the Tyuratam Missile And Space Complex (TTMTR). The debris from Iridium 33, an American commercial communications satellite, has been tracked extensively since its accidental collision with the defunct Russian satellite Cosmos 2251 in 2009. This event, occurring at high speed in low Earth orbit (LEO), generated thousands of pieces of space debris, significantly increasing the risk of further collisions. The Iridium 33 debris cloud has impacted space traffic management and orbital debris mitigation strategies, making it a subject of ongoing study in space situational awareness.

Loading next visibility...
Identifier
38241, 1997-051ZR
Orbit
LEO
Country
Flag of USUS
Related business
Manufacturer
Unknown
Mission
Spacecraft
Bus & Motor
Unknown
Mass
Unknown
Launch date (UTC)
1997-09-14 (29 years ago)
Launch vehicle
Unknown
Launch site
Tyuratam Missile And Space Complex (TTMTR)
Object type
Payload
Rocket body
Debris
Shape & HBR
Unknown shape, 0.058 m
Radar Cross Section
Small (<0.1 m²)

Expand to show TLE details & history
Last TLE update: 3 days ago

TLE from 3 days ago
0 IRIDIUM 33 DEB
1 38241U 97051ZR  26264.62855727  .00001574  00000-0  35035-3 0  9998
2 38241  86.3218 225.5919 0003770 131.2440 228.9094 14.56382970643162
Epoch: 2026-09-21T15:05Z
TLE epoch observation values (Epoch: 2026-09-21T15:05:07.348Z)
Latitude
0.00006°
Longitude
-1.19437°
Altitude
709.715 km
Speed
7.5 km/s
True Right ascension
15h 02m 22s
True Declination
0° 00' 00"
Sunlit
Object was in daylight at epoch
Visualization orbit readout
Latitude
Unknown
Longitude
Unknown
Altitude
Unknown
Speed
Unknown
Apparent Right ascension
Unknown
Apparent Declination
Unknown
Sunlit
N/A
Visualization observer readout
Local Sidereal Time
10:32:33
Azimuth
Unknown
Elevation
Unknown
Doppler factor
Unknown
Orbital elements
Apogee altitude
704.481 km
Perigee altitude
699.143 km
Semi-major axis
7,079.949 km
Eccentricity
0.00038
Inclination
86.3218°
RAAN
225.5919°
Arg. of periapsis
131.244°
True anomaly
228.87685°
Mean anomaly
228.9094°
Eccentric anomaly
228.89312°
Mean motion
3.64333 °/min
Orbital period
98.81 mins
BSTAR
0.00035035
Loading maneuver chart data...
Computing Atmospheric mass density...

Documentation

Showing up to 5 results
|